NIMIQ 2

Last updated on Tue Oct 08 2024 00:02:37 GMT+0000 (Coordinated Universal Time)

1 27632U 02062A 24281.43264226 -.00000055 00000+0 00000+0 0 9995 2 27632 7.9922 63.1142 0006160 138.4230 221.6292 1.00272117 37984
UTC large
Height (km)
Speed (km/s)
/
Latitude / Longitude
Inclination (degrees)
Orbital Period (minutes)
Azimuth
Elevation
Range (km)
Doppler Factor

Next 0 passes for location: London (51.5072 / 0.1276)

Sorry there are no passes over London.